Location: �clusier
(49.9361°N, 2.7869°E)
Time: 09:02:23
(UTC+00:00)

Cosmos 2369 Rocket - Pass Details

Date: 16 June 2021
Orbit: 828 x 854 km, 71.0° (Epoch: 02 August)

Event Time Altitude Azimuth Distance (km) Brightness Sun altitude
Rises 23:28:30 0° 333° (NNW) 3,433 6.7 -16.5°
Reaches altitude 10° 23:31:18 10° 345° (NNW) 2,495 5.9 -16.6°
Maximum altitude 23:36:16 29° 45° (NE) 1,512 3.9 -16.6°
Drops below altitude 10° 23:41:13 10° 105° (ESE) 2,483 4.5 -16.7°
Sets 23:43:59 0° 116° (ESE) 3,414 5.1 -16.7°
